Showing default

OPS 5798 (TRANSIT 5B-4), 897

Orbit data source: Space-Track

OPS 5798 (TRANSIT 5B-4), 897 is a payload satellite owned by USN BuWeps (US) in LEO that was launched on Tue, 06 Oct 1964 UTC via a THOR ABLESTAR launch vehicle from the Air Force Western Test Range (AFWTR). Payload-class satellites include a variety of spacecraft equipped with specific instruments for various scientific and technological missions. These include communications satellites like Starlink; space stations such as the ISS; scientific satellites like the Hubble; Earth observation satellites from companies like Planet Labs, Umbra, and HawkEye 360; GPS; miniature CubeSats for education and research; and military/defense satellites.

Loading next visibility...
Identifier
897, 1964-063B
Orbit
LEO
Country
Flag of USUS
Related business
Manufacturer
NAFI
Mission
Spacecraft
Bus & Motor
TRANSIT 5, Unknown motor
Mass
~54 kg wet, ~54 kg dry
Launch date (UTC)
1964-10-06 (61 years ago)
Launch vehicle
THOR ABLESTAR
Launch site
Air Force Western Test Range (AFWTR)
Object type
Payload
Rocket body
Debris
Shape & HBR
Unknown
Radar Cross Section
Medium (>0.1 m² and <1 m²)

Expand to show TLE details & history
Last TLE update: 10 hours ago

TLE from 10 hours ago
0 OPS 5798 (TRANSIT 5B-4)
1 00897U 64063B   25309.77470943  .00000091  00000-0  12147-3 0  9991
2 00897  90.2337  70.2501 0021500 106.7439  61.9498 13.53706419 14992
Epoch: 2025-11-05T18:35Z
TLE epoch observation values (Epoch: 2025-11-05T18:35:34.894Z)
Latitude
11.03935°
Longitude
-73.84248°
Altitude
1,053.365 km
Speed
7.33 km/s
True Right ascension
16h 41m 10s
True Declination
10° 58' 39"
Sunlit
Object was in daylight at epoch
Visualization orbit readout
Latitude
Unknown
Longitude
Unknown
Altitude
Unknown
Speed
Unknown
Apparent Right ascension
Unknown
Apparent Declination
Unknown
Sunlit
N/A
Visualization observer readout
Local Sidereal Time
00:53:43
Azimuth
Unknown
Elevation
Unknown
Doppler factor
Unknown
Orbital elements
Apogee altitude
1,071.68 km
Perigee altitude
1,039.715 km
Semi-major axis
7,433.834 km
Eccentricity
0.00215
Inclination
90.2337°
RAAN
70.2501°
Arg. of periapsis
106.7439°
True anomaly
62.16751°
Mean anomaly
61.9498°
Eccentric anomaly
62.05863°
Mean motion
3.38629 °/min
Orbital period
106.31 mins
BSTAR
0.00012147
Loading maneuver chart data...
Computing Atmospheric mass density...
Loading historical data...
Loading historical data...
Loading historical data...
Loading historical data...
Loading historical data...
Loading historical data...
Loading historical data...
Other satellites on launch #63 in the year 1964 (1964-10-06 UTC)

Documentation

Showing up to 5 results
|